{"data":{"norad_id":57933,"epoch":"2026-09-20T19:26:52.290816Z","epoch_age_seconds":108321,"freshness":"FRESH","line1":"1 57933U 23147W   26263.81032744 -.00001645  00000+0 -50267-4 0  9993","line2":"2 57933  43.0013 302.8908 0001412 274.3627  85.7063 15.27569744166449","mean_motion":15.27569744,"eccentricity":0.0001412,"inclination_deg":43.0013,"raan_deg":302.8908,"arg_perigee_deg":274.3627,"mean_anomaly_deg":85.7063,"bstar":-5.0267e-5,"rev_number":16644,"period_min":94.26738161423,"perigee_km":482.11100255199,"apogee_km":484.04861017811,"semimajor_km":6861.2168063651,"source":"CELESTRAK","updated_at":"2026-09-21T09:00:33.743668Z"}}